Tracking 24122 objects as of 9-Dec-2021
HD Live streaming from Space Station
objects crossing your sky now

OPS 4682 DEB

Track OPS 4682 DEB now!
10-day predictions


NORAD ID: 38387
Int'l Code: 1965-027CQ
Perigee: 1,268.9 km
Apogee: 1,303.1 km
Inclination: 90.3 °
Period: 111.1 minutes
Semi major axis: 7656 km
RCS: 0.0137 m2 (small)
Launch date: April 3, 1965
Source: United States (US)
Launch site: AIR FORCE WESTERN TEST RANGE (AFWTR)

Note: This is SATELLITE DEBRIS
aabbcc
Your satellite tracking list
Your tracking list is empty




NASA's NSSDC Master Catalog

Two Line Element Set (TLE):
1 38387U 65027CQ  21339.71971863  .00000302  00000-0  10382-2 0  9990
2 38387  90.2751 326.9857 0022386 131.1977 229.1077 12.95731919389538
Source of the keplerian elements: AFSPC